DW5338 Weather Reports


Display with metric or nautical units.
time (UTC)temp
F
wind
direction
speed
MPH
gust
MPH
rain 1hr
in
rain 24hr
in
rain mn
in
humidity
%
barometer
mb
20260504020517 50 203 6.0 11.0 0.00 0.00 0.00 36 1015.6
20260504015516 51 203 5.0 11.0 0.00 0.00 0.00 35 1015.5
20260504014516 51 225 4.0 11.0 0.00 0.00 0.00 34 1015.5
20260504013516 51 225 4.0 9.0 0.00 0.00 0.00 34 1015.4
20260504012536 51 248 3.0 8.0 0.00 0.00 0.00 34 1015.4
20260504011517 52 270 5.0 10.0 0.00 0.00 0.00 34 1015.4
20260504010520 52 248 5.0 9.0 0.00 0.00 0.00 34 1015.5
20260504005519 52 270 7.0 11.0 0.00 0.00 0.00 33 1015.7
20260504004520 52 270 8.0 13.0 0.00 0.00 0.00 33 1015.6
20260504003520 53 270 13.0 24.0 0.00 0.00 0.00 32 1015.9
20260504002539 54 293 10.0 17.0 0.00 0.00 0.00 31 1015.9
20260504001539 54 293 14.0 22.0 0.00 0.00 0.00 31 1015.8
20260504000516 53 270 10.0 15.0 0.00 0.00 0.00 33 1015.6
20260503235516 53 293 12.0 20.0 0.00 0.00 0.00 34 1015.8
20260503234516 52 270 18.0 31.0 0.00 0.00 0.00 36 1016.0
20260503233516 54 270 13.0 29.0 0.00 0.00 0.00 31 1016.4
20260503232516 54 270 7.0 14.0 0.00 0.00 0.00 31 1016.5
20260503231516 53 225 10.0 19.0 0.00 0.00 0.00 31 1016.1
20260503230519 53 248 12.0 24.0 0.00 0.00 0.00 34 1016.2
20260503225536 55 270 11.0 23.0 0.00 0.00 0.00 27 1015.8
20260503224516 56 248 3.0 7.0 0.00 0.00 0.00 28 1015.4
20260503223516 56 225 4.0 8.0 0.00 0.00 0.00 29 1015.6
20260503222516 54 203 9.0 19.0 0.00 0.00 0.00 31 1016.1
20260503221516 55 270 8.0 23.0 0.00 0.00 0.00 29 1015.8
20260503220520 55 270 6.0 11.0 0.00 0.00 0.00 27 1015.8
20260503215520 55 338 1.0 5.0 0.00 0.00 0.00 27 1016.2
20260503214519 55 293 7.0 12.0 0.00 0.00 0.00 28 1016.3
20260503213516 54 315 7.0 16.0 0.00 0.00 0.00 29 1016.4
20260503212516 54 293 14.0 22.0 0.00 0.00 0.00 29 1016.3
20260503211516 55 338 11.0 21.0 0.00 0.00 0.00 28 1016.5
20260503210536 56 293 11.0 21.0 0.00 0.00 0.00 27 1016.7
20260503205516 56 248 2.0 6.0 0.00 0.00 0.00 25 1016.9
20260503204516 54 293 8.0 34.0 0.00 0.00 0.00 27 1016.9
20260503203516 56 248 6.0 14.0 0.00 0.00 0.00 27 1017.3
20260503202539 56 225 11.0 22.0 0.00 0.00 0.00 26 1017.4
20260503201516 58 270 7.0 17.0 0.00 0.00 0.00 21 1017.6
20260503200516 56 315 12.0 19.0 0.00 0.00 0.00 25 1017.3
20260503195516 55 293 7.0 21.0 0.00 0.00 0.00 24 1017.2
20260503194519 56 293 7.0 12.0 0.00 0.00 0.00 23 1017.1
20260503193516 58 270 9.0 21.0 0.00 0.00 0.00 22 1017.3
20260503192516 57 293 6.0 12.0 0.00 0.00 0.00 23 1017.3
20260503191516 56 248 9.0 23.0 0.00 0.00 0.00 23 1017.4
20260503190536 56 270 11.0 20.0 0.00 0.00 0.00 23 1017.4
20260503185516 56 270 13.0 22.0 0.00 0.00 0.00 23 1017.4
20260503184519 55 270 8.0 16.0 0.00 0.00 0.00 23 1017.7
20260503183519 55 293 9.0 17.0 0.00 0.00 0.00 22 1017.8
20260503182516 54 270 7.0 16.0 0.00 0.00 0.00 24 1017.7
20260503181516 54 270 5.0 11.0 0.00 0.00 0.00 25 1017.8
20260503180519 54 270 11.0 25.0 0.00 0.00 0.00 24 1018.0
20260503175519 54 270 8.0 23.0 0.00 0.00 0.00 24 1018.3
20260503174519 54 270 6.0 13.0 0.00 0.00 0.00 26 1018.6
20260503173516 53 270 6.0 14.0 0.00 0.00 0.00 26 1018.7
20260503172516 53 270 8.0 14.0 0.00 0.00 0.00 26 1018.6
20260503171516 52 270 5.0 12.0 0.00 0.00 0.00 27 1018.6
20260503170519 51 248 5.0 13.0 0.00 0.00 0.00 28 1018.6
20260503150515 47 248 8.0 13.0 0.00 0.00 0.00 35 1019.0
20260503130515 41 203 4.0 8.0 0.00 0.00 0.00 42 1020.0
20260503110519 45 248 6.0 13.0 0.00 0.00 0.00 36 1019.7
20260503081519 41 225 6.0 11.0 0.00 0.00 0.00 43 1020.7
20260503080515 42 203 6.0 9.0 0.00 0.00 0.00 43 1021.1
20260503072515 40 225 6.0 9.0 0.00 0.00 0.00 47 1021.0
20260503071518 39 225 6.0 12.0 0.00 0.00 0.00 46 1020.8
20260503070515 39 203 7.0 11.0 0.00 0.00 0.00 45 1020.8
20260503054537 41 203 6.0 8.0 0.00 0.00 0.00 37 1020.9
20260503053517 41 225 6.0 10.0 0.00 0.00 0.00 35 1020.9
20260503052537 41 225 9.0 14.0 0.00 0.00 0.00 37 1020.7
20260503051516 39 225 7.0 12.0 0.00 0.00 0.00 39 1020.5
20260503050520 39 203 7.0 11.0 0.00 0.00 0.00 39 1020.5
20260503045520 39 203 6.0 9.0 0.00 0.00 0.00 39 1020.6
20260503044516 39 203 7.0 11.0 0.00 0.00 0.00 39 1020.4
20260503043520 40 225 8.0 12.0 0.00 0.00 0.00 39 1020.6
20260503042520 40 203 7.0 10.0 0.00 0.00 0.00 39 1020.8
20260503041516 40 203 7.0 12.0 0.00 0.00 0.00 39 1020.5
20260503040517 40 203 6.0 8.0 0.00 0.00 0.00 39 1020.7
20260503035516 40 203 8.0 11.0 0.00 0.00 0.00 38 1020.6
20260503034516 41 203 5.0 6.0 0.00 0.00 0.00 36 1020.3
20260503033520 42 203 6.0 8.0 0.00 0.00 0.00 36 1020.5
20260503032520 42 203 6.0 8.0 0.00 0.00 0.00 36 1020.6
20260503031520 43 203 5.0 8.0 0.00 0.00 0.00 34 1020.6
20260503030520 44 203 5.0 8.0 0.00 0.00 0.00 33 1020.7
20260503025520 45 203 4.0 7.0 0.00 0.00 0.00 30 1020.8
20260503024520 47 203 4.0 5.0 0.00 0.00 0.00 27 1020.7
20260503023516 48 225 2.0 3.0 0.00 0.00 0.00 24 1020.6
20260503022516 49 270 5.0 6.0 0.00 0.00 0.00 22 1020.8
20260503021516 51 0.0 2.0 0.00 0.00 0.00 17 1020.5